Weather in Pechenihy

Ukraine / Kharkiv Region     49°51′52″N   36°55′56″E
temp.,
°C
wind,
m/s
gust,
m/s
humid.,
%
clouds,
%
prec.,
mm/h
press.,
hPa
HPBL,
m
18 april, sun
sun1800:00+8ssw2478100 0.2 1020129
03:00+7sw3680100 0.3 1019217
06:00+6sw358699 0.0 1019153
09:00+10sw3666100 0.1 1018826
12:00+11sw4560100 0.7 10181165
15:00+12wsw2358100 1.1 10171200
18:00+8n4689100 1.7 1017345
21:00+7ne2289100 3.1 1018201
19 april, mon
mon1900:00+6ne119239 0.1 101712
03:00+5nw1193100 0.1 101710
06:00+5nnw119544 0.0 101714
09:00+9ne1170100 0.1 1017844
12:00+10ne1259100 0.0 1016995
15:00+13se1148100 0.0 10161568
18:00+13nne1245100 0.0 10151590
21:00+9ne456733 0.0 1015104
20 april, tue
tue2000:00+9ene51068100 0.0 1014310
03:00+9ene5106793 0.0 1012314
06:00+9ne4876100 0.1 1010165
09:00+9ene61185100 0.8 1009477
12:00+10ene91688100 4.9 10031036
15:00+10ene71395100 21.2 997762
18:00+11s51193100 2.5 996423
21:00+11ssw7138691 3.2 998719
21 april, wed
wed2100:00+9s81485100 0.4 999754
03:00+7wnw61091100 1.9 1002617
06:00+7w71191100 0.0 1007713
09:00+7w7981100 0.1 1011792
12:00+10wsw7964100 0.0 10131439
15:00+8sw7871100 0.1 10161086
18:00+8w5867100 0.0 10181088
21:00+6sw2275100 0.0 102015
22 april, thu
thu2200:00+5s3375100 0.0 102143
03:00+5s368291 0.0 102199
06:00+6sse348395 0.0 102287
09:00+10s4669100 0.0 1023386
12:00+13s4459100 0.2 10231213
15:00+14s445882 1.0 10231188
18:00+13s3563100 0.4 1022413
21:00+10s3575100 0.6 102365